QZS-3 (MICHIBIKI-3) (42917 NORAD) Tracking and Keplerian Element Data

This shows tracking and keplerian element data for the satellite.

Feedback or suggestion? Click here.




ElementValue
Catalog42917
NameQZS-3 (MICHIBIKI-3)
Epoch Orbit1496
Epoch Day259.02248922
Epoch Year2021
RAAN201.0585
Inclination0.0536
Eccentricity0.0001725
Argument of Perigee336.3028
Mean Anonmoly312.9772
Mean Motion1.00270757
Decay Rate-3.69E-06
L11 42917U 17048A 21259.02248922 -.00000369 00000-0 00000+0 0 9999
L22 42917 0.0536 201.0585 0001725 336.3028 312.9772 1.00270757 14960

Live tracking and technical data element details for QZS-3 (MICHIBIKI-3) (NORAD 42917). QZS-3 (MICHIBIKI-3) can be tracked NOW for your location showing map with azimuth and elevation plus other details from your city location.

Track the satellite on the map from your city or location and see movement details for azimuth, elevation, latitude, longitude, range, height, and movement on the map or in text.







IsCatalogInMostPopularTable: catalog: 42917, numindb: 671
Update: records affected: 1



GetName: 42917 QZS-3 (MICHIBIKI-3)

Hit Count: updated at: Sat, 18 Sep 2021 10:38:04 GMT